Meath Environmental Platform

Observations for Trim Market St

Time AQI Temp °C Hum % Pres Pa CO μg/m³ H₂S μg/m³ NO μg/m³ NO₂ μg/m³ O₃ μg/m³ SO₂ μg/m³ PM1 μg/m³ PM2.5 μg/m³ PM10 μg/m³
Wednesday 26 August 2026
09:00 2 17.4 84 2,147,483,647 0.31 0 1.04 21.35 30.44 0 6.41 7.05 10.8
08:58 2 17.4 84 2,147,483,647 0.34 0 1.02 26.31 34.64 0 5.7 6.6 10.25
08:54 2 17.3 84 2,147,483,647 0.27 0 1.22 17.6 36.95 0 5.7 7.06 11.34
08:53 2 17.3 84 2,147,483,647 0.28 0 1.05 22.91 38.58 0 5.7 7.06 11.34
08:52 2 17.3 84 2,147,483,647 0.29 0 1.27 21.52 34.34 0 6.41 7.05 9.71
08:50 2 17.2 84 2,147,483,647 0.27 0 1.25 16.39 41.42 0 5.7 6.59 11.88
08:39 2 17.1 84 2,147,483,647 0.25 0 1.45 17.3 39.99 0 7.13 7.5 11.32
08:38 2 17.1 84 2,147,483,647 0.24 0 1.45 15.98 43.01 0 3.56 4.71 8.07
08:37 2 17.1 84 2,147,483,647 0.25 0 1.52 15.99 40.46 0 6.41 6.57 10.78
08:36 2 17 84 2,147,483,647 0.24 0 1.64 15.23 39.25 0 5.7 6.1 10.24
08:35 2 17 84 2,147,483,647 0.24 0 1.88 18.87 41.75 0 4.28 5.17 8.61
08:34 2 17 84 2,147,483,647 0.25 0 1.78 15.52 38.45 0 3.56 5.63 9.7
08:33 2 17 84 2,147,483,647 0.25 0 1.72 17.84 38.55 0 6.41 7.03 11.32
08:32 2 17 84 2,147,483,647 0.24 0 1.56 16.49 42.63 0 5.7 6.1 9.7
08:31 2 16.9 84 2,147,483,647 0.24 0 1.49 14.62 40.4 0 4.99 5.64 10.78
08:30 2 16.9 84 2,147,483,647 0.25 0 1.43 18.02 42.08 0 3.56 3.77 7.53
08:29 2 16.9 84 2,147,483,647 0.25 0 1.49 17 39.31 0 4.99 6.11 11.32
08:28 2 16.9 84 2,147,483,647 0.27 0 1.46 17.67 40.2 0 5.7 6.11 11.32
08:27 2 16.9 84 2,147,483,647 0.29 0 1.64 19.97 36.4 0 4.99 7.04 11.87
08:26 2 16.9 84 2,147,483,647 0.25 0 1.72 16 46.14 0 5.7 6.58 10.79